| time (UTC) | temp F | wind direction | speed MPH | gust MPH | rain 1hr in | rain 24hr in | rain mn in | humidity % | barometer mb |
| 20260508093055 | 53 | 0 | 0.0 | 2.0 | 0.00 | 0.00 | 0.00 | 50 | 1010.1 |
| 20260508091614 | 53 | 0 | 0.0 | 1.0 | 0.00 | 0.00 | 0.00 | 49 | 1009.7 |
| 20260508090109 | 54 | 0 | 0.0 | 2.0 | 0.00 | 0.00 | 0.00 | 50 | 1010.3 |
| 20260508084557 | 55 | 67 | 0.0 | 2.0 | 0.00 | 0.00 | 0.00 | 47 | 1010.2 |
| 20260508083111 | 55 | 0 | 0.0 | 1.0 | 0.00 | 0.00 | 0.00 | 44 | 1010.3 |
| 20260508081602 | 55 | 0 | 0.0 | 5.0 | 0.00 | 0.00 | 0.00 | 43 | 1009.8 |
| 20260508080106 | 55 | 44 | 0.0 | 0.0 | 0.00 | 0.00 | 0.00 | 44 | 1010.1 |
| 20260508074556 | 56 | 0 | 0.0 | 0.0 | 0.00 | 0.00 | 0.00 | 43 | 1010.4 |
| 20260508073100 | 56 | 0 | 0.0 | 4.0 | 0.00 | 0.00 | 0.00 | 40 | 1010.1 |
| 20260508071602 | 56 | 0 | 1.0 | 5.0 | 0.00 | 0.00 | 0.00 | 42 | 1010.0 |
| 20260508070140 | 56 | 37 | 1.0 | 3.0 | 0.00 | 0.00 | 0.00 | 40 | 1010.1 |
| 20260508064608 | 56 | 0 | 0.0 | 0.0 | 0.00 | 0.00 | 0.00 | 39 | 1010.4 |
| 20260508063053 | 56 | 0 | 0.0 | 2.0 | 0.00 | 0.00 | 0.00 | 38 | 1010.4 |
| 20260508061603 | 56 | 0 | 0.0 | 3.0 | 0.00 | 0.00 | 0.00 | 38 | 1010.4 |
| 20260508060057 | 56 | 36 | 1.0 | 4.0 | 0.00 | 0.00 | 0.00 | 39 | 1010.0 |
| 20260508054554 | 56 | 0 | 0.0 | 2.0 | 0.00 | 0.00 | 0.00 | 43 | 1010.1 |
| 20260508053104 | 57 | 0 | 0.0 | 3.0 | 0.00 | 0.00 | 0.00 | 39 | 1010.1 |
| 20260508051558 | 57 | 0 | 0.0 | 0.0 | 0.00 | 0.00 | 0.00 | 37 | 1010.1 |
| 20260508050103 | 58 | 0 | 0.0 | 0.0 | 0.00 | 0.00 | 0.00 | 36 | 1010.2 |
| 20260508044557 | 58 | 0 | 0.0 | 0.0 | 0.00 | 0.00 | 0.00 | 35 | 1010.3 |
| 20260508043104 | 58 | 0 | 0.0 | 0.0 | 0.00 | 0.00 | 0.00 | 35 | 1010.3 |
| 20260508041557 | 58 | 0 | 0.0 | 0.0 | 0.00 | 0.00 | 0.00 | 35 | 1010.3 |
| 20260508040100 | 58 | 0 | 0.0 | 0.0 | 0.00 | 0.00 | 0.00 | 35 | 1010.5 |
| 20260508034559 | 59 | 0 | 0.0 | 0.0 | 0.00 | 0.00 | 0.00 | 34 | 1010.3 |
| 20260508033057 | 59 | 0 | 0.0 | 0.0 | 0.00 | 0.00 | 0.00 | 34 | 1010.2 |
| 20260508031601 | 59 | 0 | 0.0 | 0.0 | 0.00 | 0.00 | 0.00 | 34 | 1010.3 |
| 20260508024601 | 61 | 0 | 0.0 | 0.0 | 0.00 | 0.00 | 0.00 | 31 | 1010.2 |
| 20260508023055 | 62 | 0 | 0.0 | 0.0 | 0.00 | 0.00 | 0.00 | 31 | 1010.0 |
| 20260508021554 | 62 | 0 | 0.0 | 0.0 | 0.00 | 0.00 | 0.00 | 31 | 1009.9 |
| 20260508020100 | 63 | 0 | 0.0 | 0.0 | 0.00 | 0.00 | 0.00 | 30 | 1009.7 |
| 20260508014556 | 63 | 0 | 0.0 | 0.0 | 0.00 | 0.00 | 0.00 | 30 | 1009.6 |
| 20260508013104 | 65 | 0 | 0.0 | 4.0 | 0.00 | 0.00 | 0.00 | 28 | 1009.7 |
| 20260508011554 | 66 | 348 | 0.0 | 4.0 | 0.00 | 0.00 | 0.00 | 27 | 1009.5 |
| 20260508010058 | 67 | 0 | 0.0 | 6.0 | 0.00 | 0.00 | 0.00 | 26 | 1009.4 |
| 20260508004600 | 67 | 0 | 0.0 | 7.0 | 0.00 | 0.00 | 0.00 | 27 | 1009.2 |
| 20260508003059 | 68 | 0 | 0.0 | 8.0 | 0.00 | 0.00 | 0.00 | 27 | 1009.1 |
| 20260508001559 | 68 | 0 | 1.0 | 6.0 | 0.00 | 0.00 | 0.00 | 26 | 1009.1 |
| 20260508000057 | 69 | 0 | 0.0 | 10.0 | 0.00 | 0.00 | 0.00 | 26 | 1009.0 |
| 20260507234555 | 69 | 345 | 2.0 | 11.0 | 0.00 | 0.00 | 0.00 | 26 | 1008.9 |
| 20260507233055 | 69 | 307 | 1.0 | 13.0 | 0.00 | 0.00 | 0.00 | 27 | 1009.0 |
| 20260507231555 | 70 | 350 | 1.0 | 13.0 | 0.00 | 0.00 | 0.00 | 27 | 1009.0 |
| 20260507230100 | 70 | 293 | 0.0 | 8.0 | 0.00 | 0.00 | 0.00 | 28 | 1008.8 |
| 20260507224557 | 71 | 356 | 3.0 | 12.0 | 0.00 | 0.00 | 0.00 | 26 | 1008.8 |
| 20260507223057 | 71 | 341 | 2.0 | 9.0 | 0.00 | 0.00 | 0.00 | 28 | 1008.9 |
| 20260507221600 | 71 | 338 | 4.0 | 14.0 | 0.00 | 0.00 | 0.00 | 27 | 1008.9 |
| 20260507220057 | 71 | 317 | 1.0 | 8.0 | 0.00 | 0.00 | 0.00 | 28 | 1008.9 |
| 20260507214554 | 71 | 274 | 2.0 | 12.0 | 0.00 | 0.00 | 0.00 | 25 | 1008.9 |
| 20260507213101 | 72 | 0 | 2.0 | 10.0 | 0.00 | 0.00 | 0.00 | 26 | 1008.9 |
| 20260507211559 | 72 | 304 | 2.0 | 8.0 | 0.00 | 0.00 | 0.00 | 27 | 1009.0 |
| 20260507210057 | 71 | 275 | 1.0 | 16.0 | 0.00 | 0.00 | 0.00 | 29 | 1009.1 |
| 20260507204600 | 71 | 298 | 3.0 | 12.0 | 0.00 | 0.00 | 0.00 | 31 | 1009.3 |
| 20260507203058 | 71 | 296 | 1.0 | 17.0 | 0.00 | 0.00 | 0.00 | 26 | 1009.5 |
| 20260507201603 | 71 | 0 | 2.0 | 13.0 | 0.00 | 0.00 | 0.00 | 26 | 1009.4 |
| 20260507200057 | 72 | 0 | 1.0 | 11.0 | 0.00 | 0.00 | 0.00 | 28 | 1009.5 |
| 20260507194608 | 68 | 313 | 1.0 | 10.0 | 0.00 | 0.00 | 0.00 | 33 | 1009.5 |
| 20260507193056 | 71 | 299 | 3.0 | 13.0 | 0.00 | 0.00 | 0.00 | 33 | 1009.4 |
| 20260507191617 | 71 | 211 | 3.0 | 12.0 | 0.00 | 0.00 | 0.00 | 34 | 1009.5 |
| 20260507190059 | 70 | 0 | 2.0 | 12.0 | 0.00 | 0.00 | 0.00 | 34 | 1009.5 |
| 20260507184605 | 70 | 218 | 4.0 | 14.0 | 0.00 | 0.00 | 0.00 | 33 | 1009.6 |
| 20260507183103 | 69 | 321 | 1.0 | 15.0 | 0.00 | 0.00 | 0.00 | 38 | 1009.7 |
| 20260507181558 | 68 | 215 | 1.0 | 14.0 | 0.00 | 0.00 | 0.00 | 35 | 1009.8 |
| 20260507180107 | 68 | 0 | 1.0 | 12.0 | 0.00 | 0.00 | 0.00 | 36 | 1010.0 |
| 20260507174556 | 67 | 303 | 5.0 | 14.0 | 0.00 | 0.00 | 0.00 | 35 | 1010.2 |
| 20260507173059 | 67 | 304 | 1.0 | 11.0 | 0.00 | 0.00 | 0.00 | 38 | 1010.3 |
| 20260507171559 | 67 | 272 | 1.0 | 11.0 | 0.00 | 0.00 | 0.00 | 38 | 1010.4 |
| 20260507170056 | 66 | 0 | 0.0 | 17.0 | 0.00 | 0.00 | 0.00 | 39 | 1010.8 |
| 20260507164624 | 66 | 206 | 0.0 | 5.0 | 0.00 | 0.00 | 0.00 | 41 | 1011.0 |
| 20260507163055 | 64 | 178 | 0.0 | 12.0 | 0.00 | 0.00 | 0.00 | 42 | 1011.2 |
| 20260507161606 | 64 | 0 | 1.0 | 10.0 | 0.00 | 0.00 | 0.00 | 43 | 1011.3 |
| 20260507160057 | 63 | 0 | 2.0 | 12.0 | 0.00 | 0.00 | 0.00 | 45 | 1011.3 |
| 20260507154556 | 61 | 198 | 3.0 | 13.0 | 0.00 | 0.00 | 0.00 | 46 | 1011.4 |
| 20260507153054 | 58 | 0 | 1.0 | 10.0 | 0.00 | 0.00 | 0.00 | 50 | 1011.5 |
| 20260507151555 | 57 | 0 | 2.0 | 12.0 | 0.00 | 0.00 | 0.00 | 54 | 1011.6 |
| 20260507150058 | 56 | 0 | 0.0 | 9.0 | 0.00 | 0.00 | 0.00 | 58 | 1011.9 |
| 20260507144600 | 55 | 240 | 2.0 | 14.0 | 0.00 | 0.00 | 0.00 | 61 | 1012.0 |
| 20260507143108 | 54 | 233 | 2.0 | 15.0 | 0.00 | 0.00 | 0.00 | 64 | 1011.9 |
| 20260507141611 | 52 | 219 | 3.0 | 16.0 | 0.00 | 0.00 | 0.00 | 66 | 1012.0 |
| 20260507140058 | 51 | 0 | 5.0 | 18.0 | 0.00 | 0.00 | 0.00 | 69 | 1012.1 |
| 20260507134617 | 50 | 225 | 2.0 | 13.0 | 0.00 | 0.00 | 0.00 | 71 | 1012.1 |
| 20260507133106 | 49 | 234 | 3.0 | 14.0 | 0.00 | 0.00 | 0.00 | 73 | 1012.1 |
| 20260507131612 | 48 | 207 | 3.0 | 16.0 | 0.00 | 0.00 | 0.00 | 74 | 1012.1 |
| 20260507130058 | 47 | 216 | 3.0 | 13.0 | 0.00 | 0.00 | 0.00 | 75 | 1012.4 |
| 20260507124558 | 46 | 219 | 2.0 | 15.0 | 0.00 | 0.00 | 0.00 | 76 | 1012.4 |
| 20260507123111 | 46 | 0 | 2.0 | 12.0 | 0.00 | 0.00 | 0.00 | 77 | 1012.3 |
| 20260507121557 | 45 | 0 | 1.0 | 12.0 | 0.00 | 0.00 | 0.00 | 78 | 1012.4 |
| 20260507120058 | 44 | 230 | 0.0 | 10.0 | 0.00 | 0.00 | 0.00 | 78 | 1012.3 |
| 20260507114558 | 44 | 0 | 0.0 | 10.0 | 0.00 | 0.00 | 0.00 | 78 | 1012.4 |
| 20260507113057 | 44 | 214 | 0.0 | 7.0 | 0.00 | 0.00 | 0.00 | 77 | 1012.4 |
| 20260507111559 | 45 | 0 | 1.0 | 10.0 | 0.00 | 0.00 | 0.00 | 77 | 1012.5 |
| 20260507104605 | 45 | 207 | 0.0 | 11.0 | 0.00 | 0.00 | 0.00 | 75 | 1012.4 |
| 20260507103057 | 45 | 217 | 0.0 | 9.0 | 0.00 | 0.00 | 0.00 | 74 | 1012.4 |
| 20260507101602 | 46 | 211 | 1.0 | 12.0 | 0.00 | 0.00 | 0.00 | 74 | 1012.3 |
| 20260507100101 | 45 | 0 | 1.0 | 9.0 | 0.00 | 0.00 | 0.00 | 74 | 1012.4 |
| 20260507094557 | 45 | 0 | 1.0 | 6.0 | 0.00 | 0.00 | 0.00 | 73 | 1012.6 |